Location: Cella
(44.7333°N, 10.5667°E)
Time: 10:11:50
(UTC+00:00)

Cosmos 1777 Rocket - Visible Passes

Search period start: 18 June 2021 00:00
Search period end: 28 June 2021 00:00
Orbit: 758 x 776 km, 74.0° (Epoch: 17 June)

Date Brightness Start Highest point End Pass type
(mag) Time Alt. Az. Time Alt. Az. Time Alt. Az.
18 Jun 6.4 21:09:29 10° NNE 21:11:46 13° NE 21:14:04 10° ENE visible
18 Jun 4.1 22:49:30 10° NNW 22:54:49 73° ENE 22:56:29 44° SE visible
19 Jun 5.9 00:33:13 10° WNW 00:36:11 15° W 00:36:42 15° W visible
19 Jun 4.8 22:12:16 10° N 22:17:20 44° ENE 22:19:35 29° ESE visible
19 Jun 5.3 23:54:49 10° NW 23:59:06 26° W 23:59:49 25° WSW visible
20 Jun 5.4 21:35:12 10° N 21:39:45 28° ENE 21:42:43 17° ESE visible
20 Jun 4.6 23:16:57 10° NNW 23:21:57 43° WSW 23:22:56 38° SW visible
21 Jun 6.0 20:58:22 10° N 21:02:02 19° NE 21:05:42 10° E visible
21 Jun 4.0 22:39:23 10° NNW 22:44:40 72° WSW 22:46:06 48° S visible
22 Jun 6.3 20:22:08 10° NNE 20:24:12 12° NE 20:26:15 10° ENE visible
22 Jun 4.1 22:01:59 10° NNW 22:07:18 70° ENE 22:09:17 38° SE visible
22 Jun 5.9 23:45:33 10° WNW 23:48:41 16° W 23:49:31 16° WSW visible
23 Jun 4.8 21:24:45 10° N 21:29:48 42° ENE 21:32:30 24° ESE visible
23 Jun 5.3 23:07:13 10° NW 23:11:36 27° W 23:12:44 25° WSW visible
24 Jun 5.4 20:47:42 10° N 20:52:12 27° ENE 20:55:44 14° ESE visible
24 Jun 4.6 22:29:24 10° NNW 22:34:26 45° WSW 22:35:58 35° SW visible
25 Jun 6.0 20:10:55 10° N 20:14:28 18° NE 20:18:01 10° E visible
25 Jun 4.0 21:51:50 10° NNW 21:57:09 76° WSW 21:59:14 37° S visible
26 Jun 4.1 21:14:27 10° NNW 21:19:45 66° ENE 21:22:32 28° SE visible
26 Jun 5.9 22:57:53 10° NW 23:01:11 17° W 23:02:46 15° WSW visible
27 Jun 4.8 20:37:15 10° N 20:42:15 40° ENE 20:45:51 18° SE visible
27 Jun 5.4 22:19:38 10° NW 22:24:06 28° W 22:26:05 22° SW visible
